Stations météo

réclame
Mon MeteoGroup
Ouessant, France (7100): Température de l'air & dewpoint: 19.02.2020 08:00:00 - 25.02.2020 08:00:00 (CET)Ouessant, France (7100): Vitesse du vent & gusts: 19.02.2020 08:00:00 - 25.02.2020 08:00:00 (CET)Ouessant, France (7100): Direction du vent: 19.02.2020 08:00:00 - 25.02.2020 08:00:00 (CET)Ouessant, France (7100): reduced air pressure: 19.02.2020 08:00:00 - 25.02.2020 08:00:00 (CET)Ouessant, France (7100): visibility: 19.02.2020 08:00:00 - 25.02.2020 08:00:00 (CET)Ouessant, France (7100): Quantités de précipitations: 19.02.2020 08:00:00 - 25.02.2020 08:00:00 (CET)
Date & Time tt [°C] td [°C] ff [km/h] ff [knt] fx [km/h] fx [knt] dd ppp [hPa] vv [km] rr [mm]
25.02.2020 08:00:00 8,6 6,2 48 26 65 35 W 1010,4 - 0,0
25.02.2020 07:00:00 8,3 6,3 45 24 68 37 W 1011,0 18 0,0
25.02.2020 06:00:00 8,2 6,2 39 21 58 32 W 1011,5 - 0,0
25.02.2020 05:00:00 7,9 6,7 42 23 71 38 WNW 1011,9 - 0,0
25.02.2020 04:00:00 8,3 5,8 40 22 58 31 W 1012,1 18 0,0
25.02.2020 03:00:00 8,5 6,8 40 22 54 29 WNW 1012,8 - 0,0
25.02.2020 02:00:00 8,6 6,9 26 14 47 25 W 1013,3 - 0,0
25.02.2020 01:00:00 8,7 6,1 35 19 47 26 WNW 1013,4 - 0,0
25.02.2020 00:00:00 8,9 6,9 36 19 47 26 WNW 1013,8 - 0,0
24.02.2020 23:00:00 9,3 8,8 32 17 47 26 WNW 1014,0 - 0,0
24.02.2020 22:00:00 9,3 9,3 27 15 - - WNW 1014,2 15 -
24.02.2020 21:00:00 9,6 9,6 - - 48 26 - 1014,0 - 0,0
24.02.2020 20:00:00 10,4 10,4 32 17 49 26 W 1014,1 - 0,0
24.02.2020 19:00:00 10,4 10,4 37 20 57 31 W 1013,8 - 0,4
24.02.2020 18:00:00 11,0 11,0 39 21 62 33 WSW 1014,0 - 0,0
24.02.2020 17:00:00 10,9 10,9 44 24 69 38 WSW 1014,4 - 0,0
24.02.2020 16:00:00 10,7 10,7 49 26 - - WSW 1014,8 - -
24.02.2020 15:00:00 10,6 10,6 45 25 74 40 WSW 1015,4 - 0,2
24.02.2020 14:00:00 10,6 10,3 49 27 - - SW 1016,3 - -
24.02.2020 13:00:00 11,0 9,7 49 27 76 41 SW 1017,3 - 0,0
24.02.2020 12:00:00 11,3 9,6 48 26 71 38 SW 1017,7 - 0,0
24.02.2020 11:00:00 10,9 9,0 51 28 85 46 WSW 1018,5 - 0,0
24.02.2020 10:00:00 10,7 9,6 51 27 82 45 WSW 1019,2 10 0,0
24.02.2020 09:00:00 10,1 10,1 46 25 74 40 WSW 1019,6 - 0,0
24.02.2020 08:00:00 10,2 10,2 44 24 75 40 SW 1019,7 - 0,0
24.02.2020 07:00:00 10,4 10,4 45 24 70 38 SW 1021,0 - 0,0
24.02.2020 06:00:00 10,4 10,4 45 24 66 36 SW 1021,7 - 0,0
24.02.2020 05:00:00 10,6 10,6 39 21 59 32 SW 1022,2 - 0,0
24.02.2020 04:00:00 10,6 10,6 39 21 56 31 SW 1023,2 - 0,0
24.02.2020 03:00:00 10,9 10,9 35 19 50 27 SW 1024,2 - 0,0
24.02.2020 02:00:00 10,9 10,9 31 17 56 31 WSW 1024,9 - 0,0
24.02.2020 01:00:00 11,1 11,1 33 18 50 27 WSW 1025,7 - 0,0
24.02.2020 00:00:00 11,2 11,2 35 19 51 28 WSW 1026,0 - 0,0
23.02.2020 23:00:00 11,3 11,3 35 19 49 26 SW 1025,9 - 0,0
23.02.2020 22:00:00 11,2 11,2 30 16 43 23 SW 1026,3 0,2 0,0
23.02.2020 21:00:00 11,4 11,4 31 17 48 26 WSW 1026,5 - 0,0
23.02.2020 20:00:00 11,4 11,4 30 16 49 26 WSW 1026,6 - 0,0
23.02.2020 19:00:00 11,4 11,4 34 18 51 28 WSW 1026,3 - 0,0
23.02.2020 18:00:00 11,6 11,6 35 19 56 31 WSW 1026,2 - 0,0
23.02.2020 17:00:00 12,1 12,1 39 21 64 35 WSW 1025,9 - 0,0
23.02.2020 16:00:00 11,9 11,9 40 22 61 33 WSW 1025,9 - 0,0
23.02.2020 15:00:00 12,4 12,4 42 23 59 32 WSW 1026,0 - 0,0
23.02.2020 14:00:00 12,0 12,0 41 22 64 35 WSW 1026,4 - 0,0
23.02.2020 13:00:00 12,3 12,3 41 22 71 38 WSW 1026,3 - 0,0
23.02.2020 12:00:00 11,8 11,8 42 23 64 34 WSW 1026,2 - 0,0
23.02.2020 11:00:00 11,7 11,7 45 24 65 35 WSW 1025,7 - 0,0
23.02.2020 10:00:00 11,3 11,3 48 26 70 38 WSW 1025,6 - 0,0
23.02.2020 09:00:00 11,1 11,1 48 26 71 38 WSW 1024,9 - 0,0
23.02.2020 08:00:00 10,9 10,9 49 26 73 39 WSW 1024,8 - 0,0
23.02.2020 07:00:00 10,7 10,7 48 26 81 44 WSW 1024,6 3,0 0,0
23.02.2020 06:00:00 10,6 10,6 51 27 77 42 SW 1024,4 - 0,0
23.02.2020 05:00:00 10,4 10,4 52 28 78 42 SW 1024,7 - 0,0
23.02.2020 04:00:00 10,6 10,6 48 26 81 44 SW 1025,2 - 0,0
23.02.2020 03:00:00 10,6 10,6 51 28 73 39 SW 1026,3 - 0,0
23.02.2020 02:00:00 10,7 10,7 42 23 64 35 SW 1026,8 - 0,0
23.02.2020 01:00:00 10,8 10,8 42 23 70 38 SW 1026,7 - 0,0
23.02.2020 00:00:00 11,0 11,0 40 22 59 32 SW 1027,2 - 0,0
22.02.2020 23:00:00 11,1 11,1 36 19 55 30 SW 1027,9 - 0,0
22.02.2020 22:00:00 11,1 11,1 36 20 51 28 SW 1028,0 0,2 0,0
22.02.2020 21:00:00 11,2 11,2 35 19 50 27 SW 1027,9 - 0,0
22.02.2020 20:00:00 11,1 11,1 29 16 49 26 WSW 1028,4 - 0,0
22.02.2020 19:00:00 11,2 11,2 29 16 50 27 WSW 1028,3 - 0,0
22.02.2020 18:00:00 11,3 11,3 37 20 51 28 WSW 1028,2 - 0,0
22.02.2020 17:00:00 11,4 11,4 35 19 53 29 WSW 1028,0 - 0,0
22.02.2020 16:00:00 11,4 11,4 36 19 50 27 WSW 1027,8 - 0,0
22.02.2020 15:00:00 11,5 11,3 35 19 52 28 WSW 1028,0 - 0,0
22.02.2020 14:00:00 11,6 11,6 35 19 55 30 WSW 1028,2 - 0,0
22.02.2020 13:00:00 11,3 11,1 36 20 52 28 WSW 1028,2 - 0,0
22.02.2020 12:00:00 11,1 10,8 35 19 55 30 WSW 1027,8 - 0,0
22.02.2020 11:00:00 11,2 10,1 40 21 56 30 WSW 1027,2 - 0,0
22.02.2020 10:00:00 11,1 9,7 39 21 63 34 WSW 1026,3 8 0,0
22.02.2020 09:00:00 11,0 9,4 38 21 59 32 WSW 1025,9 - 0,0
22.02.2020 08:00:00 10,3 8,6 41 22 64 35 SW 1025,4 - 0,0
22.02.2020 07:00:00 10,5 8,4 42 23 64 35 WSW 1025,7 - 0,0
22.02.2020 06:00:00 10,2 8,1 47 26 68 37 WSW 1025,6 - 0,0
22.02.2020 05:00:00 10,1 8,4 48 26 72 39 WSW 1024,8 - 0,0
22.02.2020 04:00:00 9,6 8,4 49 26 74 40 SW 1024,4 20 0,0
22.02.2020 03:00:00 9,5 8,3 49 26 72 39 SSW 1024,8 - -
22.02.2020 02:00:00 9,6 8,4 44 24 64 35 SW 1026,9 - 0,0
22.02.2020 01:00:00 9,5 8,1 41 22 67 36 SW 1026,9 20 0,0
22.02.2020 00:00:00 9,4 7,8 45 24 71 38 SW 1026,3 - 0,0
21.02.2020 23:00:00 9,5 7,9 40 21 66 36 SW 1027,5 - 0,0
21.02.2020 22:00:00 9,3 7,6 48 26 68 37 SSW 1026,7 20 0,0
21.02.2020 21:00:00 9,1 7,4 37 20 57 31 SW 1027,1 - 0,0
21.02.2020 20:00:00 9,1 6,9 42 23 61 33 SW 1027,2 - 0,0
21.02.2020 19:00:00 9,2 6,8 41 22 62 33 SW 1027,4 20 0,0
21.02.2020 18:00:00 9,8 6,7 42 23 64 34 SW 1028,5 - 0,0
21.02.2020 17:00:00 10,2 6,5 41 22 61 33 SW 1028,0 - 0,0
21.02.2020 16:00:00 10,6 6,9 41 22 - - SW 1027,9 - -
21.02.2020 15:00:00 11,1 7,0 41 22 64 34 SW 1028,4 - 0,0
21.02.2020 14:00:00 11,4 6,9 43 23 60 32 SW 1028,6 - 0,0
21.02.2020 13:00:00 11,2 6,5 39 21 56 30 SW 1029,3 - 0,0
21.02.2020 12:00:00 11,0 5,9 42 23 58 31 SW 1029,3 - 0,0
21.02.2020 11:00:00 10,6 5,8 37 20 54 29 SW 1029,3 - 0,0
21.02.2020 10:00:00 9,6 5,0 36 19 56 30 WSW 1029,5 18 0,0
21.02.2020 09:00:00 8,5 4,1 27 15 42 23 WSW 1029,2 - 0,0
21.02.2020 08:00:00 8,6 4,6 29 15 44 24 WSW 1029,0 - 0,0
21.02.2020 07:00:00 8,6 4,8 27 15 38 20 WSW 1028,9 18 0,0
21.02.2020 06:00:00 7,5 3,7 24 13 43 23 WSW 1029,0 - 0,0
21.02.2020 05:00:00 7,7 3,5 24 13 38 20 WSW 1029,1 - 0,0
21.02.2020 04:00:00 7,6 3,4 24 13 37 20 WSW 1029,1 16 0,0
21.02.2020 03:00:00 6,9 3,0 26 14 35 19 W 1029,2 - 0,0
21.02.2020 02:00:00 7,0 3,8 22 12 39 21 WSW 1029,2 - 0,0
21.02.2020 01:00:00 6,8 3,0 28 15 49 26 W 1029,3 16 0,0
21.02.2020 00:00:00 7,7 3,5 27 15 38 21 WNW 1028,8 - 0,0
20.02.2020 23:00:00 7,1 2,6 25 13 42 23 WNW 1028,4 - 0,0
20.02.2020 22:00:00 7,7 3,7 26 14 47 25 NW 1027,5 20 0,0
20.02.2020 21:00:00 7,6 2,1 39 21 56 30 NW 1026,4 - 0,0
20.02.2020 20:00:00 7,9 3,4 35 19 56 31 NW 1025,7 - 0,0
20.02.2020 19:00:00 7,8 1,8 40 21 - - NW 1024,6 - -
20.02.2020 18:00:00 8,0 3,1 40 22 68 37 NW 1023,2 - 0,0
20.02.2020 17:00:00 8,5 2,7 45 25 72 39 NW 1021,8 - 0,0
20.02.2020 16:00:00 9,4 2,7 55 30 83 45 NW 1020,4 12 0,0
20.02.2020 15:00:00 9,4 5,2 50 27 76 41 NW 1019,3 - 0,0
20.02.2020 14:00:00 8,9 6,5 46 25 85 46 NW 1018,0 - 0,0
20.02.2020 13:00:00 8,7 7,9 44 24 75 40 NW 1016,3 6 0,0
20.02.2020 12:00:00 9,8 9,2 47 25 83 45 W 1014,4 - 0,6
20.02.2020 11:00:00 10,6 10,6 49 26 84 45 SW 1013,6 - 0,2
20.02.2020 10:00:00 10,4 10,1 53 28 79 43 SSW 1013,4 - 0,0
20.02.2020 09:00:00 10,7 9,5 52 28 77 42 SSW 1013,4 - 0,0
20.02.2020 08:00:00 10,4 9,5 52 28 76 41 SSW 1013,4 - 0,0
20.02.2020 07:00:00 10,0 9,1 50 27 73 40 SW 1013,7 - 0,0
20.02.2020 06:00:00 10,3 8,2 48 26 73 40 SW 1014,2 - 0,0
20.02.2020 05:00:00 9,9 8,3 46 25 71 38 SSW 1014,7 - 0,0
20.02.2020 04:00:00 9,6 8,4 46 25 73 39 SW 1015,5 10 0,0
20.02.2020 03:00:00 9,7 8,1 45 24 63 34 SSW 1016,4 - 0,0
20.02.2020 02:00:00 9,8 7,9 42 23 63 34 SW 1017,1 - 0,0
20.02.2020 01:00:00 9,8 7,9 37 20 60 33 SW 1017,8 15 0,0
20.02.2020 00:00:00 9,4 7,7 34 19 58 31 SSW 1018,6 - 0,0
19.02.2020 23:00:00 9,5 7,9 36 19 53 29 SW 1019,3 - 0,0
19.02.2020 22:00:00 9,7 7,5 36 20 61 33 SW 1020,2 - 0,2
19.02.2020 21:00:00 10,1 7,2 35 19 52 28 SW 1020,8 - 0,0
19.02.2020 20:00:00 9,6 7,5 35 19 60 33 SW 1021,2 - 0,0
19.02.2020 19:00:00 10,1 7,9 35 19 53 28 SW 1021,6 15 0,0
19.02.2020 18:00:00 9,6 7,7 36 19 61 33 SW 1022,3 - 0,0
19.02.2020 17:00:00 10,4 7,5 35 19 53 29 WSW 1022,9 - 0,0
19.02.2020 16:00:00 11,1 7,2 35 19 53 29 WSW 1023,4 - 0,0
19.02.2020 15:00:00 11,5 6,8 37 20 58 31 WSW 1024,3 - 0,0
19.02.2020 14:00:00 11,3 7,6 40 22 60 33 WSW 1025,0 - 0,0
19.02.2020 13:00:00 10,9 8,3 36 20 - - WSW 1025,8 15 -
19.02.2020 12:00:00 11,5 8,7 37 20 51 28 SW 1026,0 - 0,0
19.02.2020 11:00:00 10,9 8,6 30 16 44 24 WSW 1026,4 - 0,0
19.02.2020 10:00:00 10,3 8,7 32 18 48 26 W 1026,7 - 0,0
19.02.2020 09:00:00 9,5 9,2 24 13 44 24 WSW 1026,8 - 0,0
19.02.2020 08:00:00 9,2 8,7 29 16 44 24 W 1026,6 - 0,0

tt = Température de l'air
td = dewpoint
ff = Vitesse du vent
fx = gusts
dd = Direction du vent
ppp = reduced air pressure
vv = visibility
rr = Quantités de précipitations

stations d'obs. à proximité